• In Moldova, Republic
  • List of Countries
  • For 7 days
  • Water Temperature
  • Satellite Maps
  • Weather Map
  • Weather Widgets
  • user-avatar
    Login

    Hourly Weather Solden

    Today, 23 April, Sunday

    Time Temperature Precipitation Wind Pressure Humidity
    00:00 -3°C° 0.1 mm 1 mps 580 mmHg 90%
    01:00 -5°C° 0 mm 2 mps 579 mmHg 91%
    02:00 -6°C° 0.1 mm 2 mps 579 mmHg 90%
    03:00 -6°C° 0.1 mm 2 mps 579 mmHg 90%
    04:00 -7°C° 0.1 mm 2 mps 579 mmHg 90%
    05:00 -6°C° 0 mm 2 mps 580 mmHg 87%
    06:00 -5°C° 0 mm 2 mps 580 mmHg 84%
    07:00 -4°C° 0 mm 2 mps 581 mmHg 81%
    08:00 -2°C° 0 mm 2 mps 582 mmHg 75%
    09:00 -1°C° 0 mm 2 mps 582 mmHg 70%
    10:00 +3°C° 0 mm 1 mps 583 mmHg 64%
    11:00 +2°C° 0 mm 2 mps 583 mmHg 64%
    12:00 +3°C° 0 mm 2 mps 584 mmHg 63%
    13:00 +4°C° 0 mm 2 mps 584 mmHg 63%
    14:00 +4°C° 0.1 mm 2 mps 584 mmHg 65%
    15:00 +3°C° 0.1 mm 2 mps 584 mmHg 67%
    16:00 +3°C° 0.1 mm 2 mps 583 mmHg 69%
    17:00 +2°C° 0.1 mm 1 mps 583 mmHg 76%
    18:00 0°C° 0.1 mm 1 mps 582 mmHg 82%
    19:00 -1°C° 0.1 mm 1 mps 581 mmHg 89%
    20:00 -2°C° 0 mm 1 mps 581 mmHg 90%
    21:00 -3°C° 0 mm 1 mps 581 mmHg 91%
    22:00 -4°C° 0 mm 1 mps 581 mmHg 91%
    23:00 -6°C° 0 mm 1 mps 581 mmHg 90%

    Tomorrow, 24 April, Monday

    Time Temperature Precipitation Wind Pressure Humidity
    00:00 -6°C° 0 mm 1 mps 581 mmHg 89%
    01:00 -6°C° 0 mm 1 mps 581 mmHg 88%
    02:00 -6°C° 0 mm 1 mps 580 mmHg 87%
    03:00 -6°C° 0 mm 1 mps 580 mmHg 86%
    04:00 -7°C° 0 mm 1 mps 580 mmHg 85%
    05:00 -4°C° 0 mm 1 mps 581 mmHg 84%
    06:00 -3°C° 0 mm 1 mps 581 mmHg 82%
    07:00 -1°C° 0 mm 1 mps 582 mmHg 81%
    08:00 +1°C° 0 mm 1 mps 582 mmHg 78%
    09:00 +1°C° 0 mm 2 mps 583 mmHg 76%
    10:00 +3°C° 0 mm 2 mps 583 mmHg 73%
    11:00 +3°C° 0 mm 2 mps 583 mmHg 72%
    12:00 +4°C° 0 mm 2 mps 583 mmHg 72%
    13:00 +4°C° 0 mm 2 mps 583 mmHg 71%
    14:00 +4°C° 0.1 mm 2 mps 583 mmHg 73%
    15:00 +4°C° 0.1 mm 2 mps 583 mmHg 75%
    16:00 +3°C° 0.1 mm 2 mps 582 mmHg 77%
    17:00 +2°C° 0.1 mm 2 mps 581 mmHg 82%
    18:00 +1°C° 0.1 mm 2 mps 581 mmHg 88%
    19:00 +1°C° 0.1 mm 1 mps 580 mmHg 94%
    20:00 0°C° 0.1 mm 1 mps 580 mmHg 95%
    21:00 0°C° 0.1 mm 1 mps 580 mmHg 96%
    22:00 -1°C° 0.1 mm 1 mps 580 mmHg 97%
    23:00 -1°C° 0.1 mm 1 mps 579 mmHg 97%

    Day after tomorrow, 25 April, Tuesday

    Time Temperature Precipitation Wind Pressure Humidity
    00:00 -1°C° 0.1 mm 1 mps 579 mmHg 97%
    01:00 -1°C° 0.1 mm 1 mps 579 mmHg 97%
    02:00 -1°C° 0.1 mm 1 mps 578 mmHg 97%
    03:00 -2°C° 0.1 mm 1 mps 578 mmHg 97%
    04:00 -2°C° 0.1 mm 1 mps 577 mmHg 97%
    05:00 -1°C° 0.1 mm 1 mps 577 mmHg 95%
    06:00 0°C° 0.1 mm 1 mps 578 mmHg 92%
    07:00 0°C° 0.1 mm 1 mps 578 mmHg 90%
    08:00 +1°C° 0.1 mm 2 mps 578 mmHg 86%
    09:00 +2°C° 0.1 mm 2 mps 578 mmHg 81%
    10:00 +3°C° 0.1 mm 2 mps 579 mmHg 77%
    11:00 +2°C° 0.2 mm 3 mps 578 mmHg 76%
    12:00 +2°C° 0.2 mm 3 mps 578 mmHg 76%
    13:00 +3°C° 0.2 mm 3 mps 578 mmHg 75%
    14:00 +3°C° 0.3 mm 3 mps 578 mmHg 76%
    15:00 +3°C° 0.3 mm 3 mps 578 mmHg 77%
    16:00 +3°C° 0.3 mm 3 mps 577 mmHg 78%
    17:00 +3°C° 1.1 mm 2 mps 577 mmHg 83%
    18:00 +1°C° 1.1 mm 2 mps 576 mmHg 89%
    19:00 -1°C° 1.1 mm 2 mps 576 mmHg 94%
    20:00 -1°C° 1.4 mm 2 mps 576 mmHg 95%
    21:00 -1°C° 1.4 mm 2 mps 576 mmHg 96%
    22:00 -1°C° 1.4 mm 2 mps 576 mmHg 97%
    23:00 -2°C° 1 mm 2 mps 576 mmHg 97%

    26 April, Wednesday

    Time Temperature Precipitation Wind Pressure Humidity
    00:00 -2°C° 1 mm 2 mps 575 mmHg 97%
    01:00 -2°C° 1 mm 2 mps 575 mmHg 98%
    02:00 -2°C° 1.3 mm 2 mps 575 mmHg 98%
    03:00 -3°C° 1.3 mm 2 mps 575 mmHg 98%
    04:00 -3°C° 1.3 mm 2 mps 575 mmHg 98%
    05:00 -3°C° 1.9 mm 2 mps 574 mmHg 97%
    06:00 -1°C° 1.9 mm 1 mps 574 mmHg 97%
    07:00 -1°C° 1.9 mm 1 mps 574 mmHg 96%
    08:00 -3°C° 2.6 mm 2 mps 574 mmHg 96%
    09:00 -3°C° 2.6 mm 2 mps 574 mmHg 96%
    10:00 -2°C° 2.6 mm 2 mps 574 mmHg 96%
    11:00 -2°C° 2.2 mm 2 mps 574 mmHg 95%
    12:00 -2°C° 2.2 mm 2 mps 574 mmHg 95%
    13:00 -2°C° 2.2 mm 2 mps 574 mmHg 94%
    14:00 -3°C° 1.9 mm 2 mps 574 mmHg 94%
    15:00 -3°C° 1.9 mm 2 mps 574 mmHg 93%
    16:00 -1°C° 1.9 mm 1 mps 574 mmHg 93%
    17:00 -2°C° 0.7 mm 1 mps 573 mmHg 93%
    18:00 -2°C° 0.7 mm 1 mps 573 mmHg 94%
    19:00 -3°C° 0.7 mm 1 mps 573 mmHg 94%
    20:00 -4°C° 0.4 mm 1 mps 573 mmHg 94%
    21:00 -4°C° 0.4 mm 1 mps 573 mmHg 94%
    22:00 -6°C° 0.4 mm 1 mps 573 mmHg 95%
    23:00 -6°C° 0.3 mm 1 mps 572 mmHg 95%

    27 April, Thursday

    Time Temperature Precipitation Wind Pressure Humidity
    00:00 -6°C° 0.3 mm 1 mps 572 mmHg 95%
    01:00 -7°C° 0.3 mm 1 mps 572 mmHg 95%
    02:00 -7°C° 0.2 mm 1 mps 572 mmHg 94%
    03:00 -7°C° 0.2 mm 1 mps 572 mmHg 94%
    04:00 -7°C° 0.2 mm 1 mps 572 mmHg 94%
    05:00 -7°C° 0.4 mm 1 mps 572 mmHg 93%
    06:00 -7°C° 0.4 mm 2 mps 572 mmHg 91%
    07:00 -7°C° 0.4 mm 2 mps 573 mmHg 90%
    08:00 -7°C° 0.8 mm 2 mps 573 mmHg 90%
    09:00 -7°C° 0.8 mm 2 mps 573 mmHg 90%
    10:00 -6°C° 0.8 mm 2 mps 573 mmHg 90%
    11:00 -6°C° 0.9 mm 2 mps 573 mmHg 90%
    12:00 -6°C° 0.9 mm 2 mps 574 mmHg 89%
    13:00 -6°C° 0.9 mm 2 mps 574 mmHg 89%
    14:00 -6°C° 0.7 mm 2 mps 574 mmHg 89%
    15:00 -7°C° 0.7 mm 2 mps 574 mmHg 89%
    16:00 -8°C° 0.7 mm 3 mps 574 mmHg 89%
    17:00 -8°C° 0.4 mm 2 mps 574 mmHg 90%
    18:00 -8°C° 0.4 mm 2 mps 574 mmHg 90%
    19:00 -9°C° 0.4 mm 2 mps 574 mmHg 91%
    20:00 -9°C° 0.1 mm 2 mps 574 mmHg 91%
    21:00 -10°C° 0.1 mm 2 mps 574 mmHg 91%
    22:00 -12°C° 0.1 mm 2 mps 574 mmHg 91%
    23:00 -12°C° 0.1 mm 2 mps 574 mmHg 91%

    28 April, Friday

    Time Temperature Precipitation Wind Pressure Humidity
    00:00 -12°C° 0.1 mm 2 mps 574 mmHg 91%
    01:00 -13°C° 0.1 mm 2 mps 573 mmHg 91%
    02:00 -13°C° 0.1 mm 2 mps 573 mmHg 91%
    03:00 -13°C° 0.1 mm 2 mps 574 mmHg 91%
    04:00 -13°C° 0.1 mm 2 mps 574 mmHg 91%
    05:00 -12°C° 0.1 mm 2 mps 574 mmHg 89%
    06:00 -10°C° 0.1 mm 2 mps 575 mmHg 88%
    07:00 -10°C° 0.1 mm 2 mps 575 mmHg 87%
    08:00 -9°C° 0.2 mm 3 mps 576 mmHg 85%
    09:00 -8°C° 0.2 mm 3 mps 576 mmHg 83%
    10:00 -7°C° 0.2 mm 3 mps 577 mmHg 82%
    11:00 -7°C° 0.3 mm 3 mps 577 mmHg 82%
    12:00 -7°C° 0.3 mm 3 mps 577 mmHg 81%
    13:00 -6°C° 0.3 mm 3 mps 578 mmHg 81%
    14:00 -6°C° 0.3 mm 3 mps 578 mmHg 82%
    15:00 -7°C° 0.3 mm 3 mps 578 mmHg 82%
    16:00 -7°C° 0.3 mm 3 mps 578 mmHg 82%
    17:00 -7°C° 0.2 mm 3 mps 578 mmHg 84%
    18:00 -7°C° 0.2 mm 2 mps 577 mmHg 86%
    19:00 -8°C° 0.2 mm 2 mps 577 mmHg 88%
    20:00 -9°C° 0.1 mm 2 mps 577 mmHg 88%
    21:00 -10°C° 0.1 mm 2 mps 577 mmHg 89%
    22:00 -12°C° 0.1 mm 2 mps 577 mmHg 90%
    23:00 -12°C° 0 mm 2 mps 577 mmHg 90%
    Show more